FW8630 Weather Reports


time (UTC)temp
C
wind
direction
speed
KPH
gust
KPH
rain 1hr
cm
rain 24hr
cm
rain mn
cm
humidity
%
barometer
mb
20260906183056 16 240 3.2 9.7 0.00 0.08 0.03 91 1019.7
20260906181555 16 242 1.6 4.8 0.00 0.08 0.03 92 1019.6
20260906180105 16 185 0.0 4.8 0.00 0.08 0.03 91 1019.6
20260906174604 16 184 1.6 8.0 0.00 0.08 0.03 90 1019.4
20260906173053 16 188 3.2 9.7 0.00 0.08 0.03 90 1019.3
20260906171552 16 198 3.2 11.3 0.00 0.08 0.03 90 1019.3
20260906170055 17 188 4.8 12.9 0.00 0.08 0.03 89 1019.3
20260906164553 17 179 4.8 12.9 0.00 0.08 0.03 87 1019.3
20260906163052 17 185 4.8 11.3 0.00 0.08 0.03 85 1019.3
20260906161556 17 194 3.2 9.7 0.00 0.08 0.03 83 1019.3
20260906160051 17 189 3.2 12.9 0.00 0.08 0.03 83 1019.4
20260906154600 17 190 1.6 6.4 0.00 0.08 0.03 84 1019.3
20260906153055 17 190 1.6 8.0 0.00 0.08 0.03 85 1019.4
20260906151550 17 232 3.2 8.0 0.00 0.08 0.03 84 1019.5
20260906150100 17 188 1.6 8.0 0.00 0.08 0.03 85 1019.4
20260906144548 17 239 3.2 8.0 0.00 0.08 0.03 85 1019.3
20260906143048 17 244 3.2 8.0 0.00 0.08 0.03 86 1019.3
20260906141557 17 244 4.8 11.3 0.00 0.08 0.03 84 1019.4
20260906140050 18 234 3.2 11.3 0.00 0.08 0.03 84 1019.3
20260906134545 18 232 4.8 11.3 0.00 0.08 0.03 83 1019.1
20260906133044 17 257 4.8 11.3 0.00 0.08 0.03 84 1019.2
20260906131541 17 250 3.2 14.5 0.00 0.08 0.03 84 1019.2
20260906130048 17 263 6.4 17.7 0.00 0.08 0.03 85 1019.0
20260906124536 17 245 4.8 11.3 0.00 0.08 0.03 85 1018.9
20260906123042 17 250 3.2 12.9 0.00 0.08 0.03 86 1018.9
20260906121533 17 264 4.8 14.5 0.00 0.08 0.03 88 1018.9
20260906120032 17 254 3.2 16.1 0.00 0.08 0.03 88 1018.9
20260906114534 16 261 3.2 14.5 0.00 0.08 0.03 88 1018.8
20260906113033 16 246 3.2 16.1 0.00 0.08 0.03 88 1018.7
20260906111529 16 264 4.8 14.5 0.00 0.08 0.03 88 1018.7
20260906110026 16 275 3.2 11.3 0.00 0.08 0.03 88 1018.5
20260906104539 16 284 1.6 9.7 0.00 0.08 0.03 88 1018.5
20260906103040 16 221 3.2 12.9 0.00 0.08 0.03 88 1018.3
20260906101522 16 281 1.6 11.3 0.00 0.08 0.03 89 1018.1
20260906100026 16 274 1.6 8.0 0.00 0.08 0.03 89 1017.8
20260906094517 16 311 3.2 12.9 0.00 0.08 0.03 88 1017.5
20260906093021 16 314 3.2 8.0 0.00 0.08 0.03 88 1017.5
20260906091521 16 273 4.8 14.5 0.00 0.08 0.03 89 1017.4
20260906090010 15 236 3.2 11.3 0.00 0.08 0.03 88 1017.2
20260906084507 15 336 3.2 11.3 0.00 0.08 0.03 89 1017.1
20260906083006 15 323 3.2 9.7 0.00 0.08 0.03 88 1016.8
20260906081601 15 251 1.6 8.0 0.00 0.08 0.03 88 1016.7
20260906081500 15 237 1.6 8.0 0.00 0.08 0.03 88 1016.7
20260906080058 15 271 3.2 14.5 0.00 0.08 0.03 89 1016.4
20260906074555 15 270 1.6 14.5 0.00 0.08 0.03 88 1016.1
20260906073054 15 326 1.6 12.9 0.00 0.08 0.03 88 1015.9
20260906071552 15 324 1.6 17.7 0.00 0.08 0.03 88 1015.7
20260906070050 15 294 3.2 12.9 0.00 0.08 0.03 87 1015.5
20260906064548 15 321 3.2 14.5 0.00 0.08 0.03 87 1015.2
20260906063047 14 319 6.4 12.9 0.00 0.08 0.03 86 1015.2
20260906061543 14 309 4.8 11.3 0.00 0.08 0.03 87 1014.8
20260906060040 13 273 3.2 14.5 0.00 0.08 0.03 87 1014.6
20260906054555 13 332 3.2 14.5 0.00 0.08 0.03 88 1014.3
20260906053034 13 313 3.2 9.7 0.00 0.08 0.03 88 1014.1
20260906051535 12 324 3.2 8.0 0.00 0.08 0.03 88 1013.8
20260906050035 12 337 3.2 9.7 0.00 0.08 0.03 88 1013.5
20260906044526 12 337 3.2 6.4 0.00 0.08 0.03 88 1013.3
20260906043024 12 336 4.8 9.7 0.00 0.08 0.03 88 1013.0
20260906041520 12 331 3.2 8.0 0.00 0.08 0.03 88 1012.8
20260906040018 12 323 1.6 6.4 0.00 0.08 0.03 88 1012.5
20260906034520 12 317 3.2 9.7 0.00 0.08 0.03 88 1012.3
20260906033014 12 329 4.8 8.0 0.00 0.08 0.03 88 1012.0
20260906031538 12 329 3.2 8.0 0.00 0.08 0.03 88 1011.8
20260906030011 12 325 1.6 4.8 0.00 0.08 0.03 88 1011.4
20260906024528 12 313 1.6 6.4 0.00 0.08 0.03 88 1011.1
20260906023007 12 336 4.8 9.7 0.00 0.08 0.03 88 1010.8
20260906021503 12 321 3.2 4.8 0.00 0.08 0.03 88 1010.6
20260906020002 12 313 3.2 9.7 0.00 0.08 0.03 88 1010.3
20260906014600 12 315 3.2 8.0 0.00 0.08 0.03 88 1010.1
20260906013105 12 329 4.8 9.7 0.00 0.08 0.03 88 1009.9
20260906011556 12 319 3.2 8.0 0.03 0.08 0.03 88 1009.8
20260906003051 12 332 3.2 8.0 0.03 0.08 0.03 89 1009.2
20260905234521 12 329 3.2 9.7 0.00 0.05 0.00 89 1008.7
20260905233020 12 300 3.2 8.0 0.00 0.05 0.00 89 1008.6
20260905231517 12 331 4.8 8.0 0.00 0.05 0.00 89 1008.5
20260905230029 12 329 1.6 17.7 0.00 0.05 0.00 90 1008.2
20260905224518 12 14 1.6 4.8 0.00 0.05 0.00 91 1008.1
20260905223015 13 42 1.6 6.4 0.03 0.05 0.00 91 1007.7
20260905221508 13 36 4.8 8.0 0.05 0.05 0.00 91 1007.7
20260905220006 13 35 1.6 6.4 0.05 0.05 0.05 91 1007.5
20260905214505 13 329 1.6 6.4 0.05 0.05 0.05 93 1007.2
20260905213002 13 294 1.6 8.0 0.05 0.05 0.05 93 1007.1
20260905211504 13 316 0.0 17.7 0.03 0.03 0.03 93 1007.0
20260905210105 14 290 4.8 12.9 0.00 0.03 0.00 93 1006.8
20260905204607 14 292 3.2 11.3 0.00 0.03 0.00 93 1006.7
20260905203108 14 295 0.0 12.9 0.00 0.03 0.00 93 1006.6
20260905201602 14 275 1.6 11.3 0.00 0.03 0.00 93 1006.5
20260905200115 14 242 4.8 20.9 0.00 0.13 0.00 93 1006.3
20260905194553 14 227 3.2 16.1 0.00 0.13 0.00 93 1006.3
20260905193056 14 261 3.2 16.1 0.00 0.13 0.00 93 1006.2
20260905191551 15 267 3.2 12.9 0.00 0.13 0.00 92 1006.2
20260905190050 15 248 4.8 19.3 0.00 0.13 0.00 93 1006.0
20260905184551 15 269 1.6 11.3 0.00 0.13 0.00 92 1006.0